FW4110 Weather Reports


time (UTC)temp
F
wind
direction
speed
knots
gust
knots
rain 1hr
in
rain 24hr
in
rain mn
in
humidity
%
barometer
mb
20200531072556 55 58 0.0 0.0 0.00 0.00 0.00 78 1024.0
20200531072053 55 58 0.0 0.0 0.00 0.00 0.00 79 1024.1
20200531071708 55 9 0.0 0.0 0.00 0.00 0.00 81 1024.1
20200531071049 55 9 0.0 0.0 0.00 0.00 0.00 81 1024.2
20200531070604 56 9 0.0 0.0 0.00 0.00 0.00 81 1024.2
20200531070049 56 9 0.0 0.0 0.00 0.00 0.00 81 1024.1
20200531065539 56 9 0.0 0.0 0.00 0.00 0.00 81 1024.0
20200531065039 56 9 0.0 0.0 0.00 0.00 0.00 81 1024.1
20200531064617 56 9 0.0 0.0 0.00 0.00 0.00 81 1024.0
20200531064042 56 9 0.0 0.0 0.00 0.00 0.00 81 1024.0
20200531063555 56 9 0.0 0.0 0.00 0.00 0.00 82 1024.0
20200531063112 56 9 0.0 0.0 0.00 0.00 0.00 83 1023.8
20200531062536 56 8 0.0 0.0 0.00 0.00 0.00 84 1023.9
20200531062046 56 9 0.0 0.0 0.00 0.00 0.00 84 1023.9
20200531061602 56 8 0.0 0.0 0.00 0.00 0.00 84 1023.9
20200531061029 56 9 0.0 0.0 0.00 0.00 0.00 84 1023.9
20200531060529 56 8 0.0 0.0 0.00 0.00 0.00 84 1023.9
20200531060119 56 8 0.0 0.0 0.00 0.00 0.00 84 1023.9
20200531055527 56 9 0.0 0.0 0.00 0.00 0.00 85 1023.8
20200531055031 56 9 0.0 0.0 0.00 0.00 0.00 84 1023.8
20200531054549 56 9 0.0 0.0 0.00 0.00 0.00 84 1023.8
20200531054027 56 9 0.0 0.0 0.00 0.00 0.00 84 1023.8
20200531053527 56 8 0.0 0.0 0.00 0.00 0.00 84 1023.8
20200531053050 56 9 0.0 0.0 0.00 0.00 0.00 84 1023.8
20200531052527 56 9 0.0 0.0 0.00 0.00 0.00 85 1023.9
20200531052038 56 9 0.0 0.0 0.00 0.00 0.00 85 1023.8
20200531051529 57 9 0.0 0.0 0.00 0.00 0.00 85 1023.8
20200531051016 57 8 0.0 0.0 0.00 0.00 0.00 84 1023.8
20200531050515 57 8 0.0 0.0 0.00 0.00 0.00 84 1023.8
20200531050020 57 8 0.0 0.0 0.00 0.00 0.00 84 1023.9
20200531045513 58 9 0.0 0.0 0.00 0.00 0.00 84 1023.8
20200531045013 58 9 0.0 0.0 0.00 0.00 0.00 84 1023.8
20200531044529 58 8 0.0 0.0 0.00 0.00 0.00 84 1023.9
20200531044013 58 9 0.0 0.0 0.00 0.00 0.00 84 1024.0
20200531043512 58 9 0.0 0.0 0.00 0.00 0.00 84 1023.9
20200531043025 58 8 0.0 0.0 0.00 0.00 0.00 84 1023.8
20200531042512 58 9 0.0 0.0 0.00 0.00 0.00 84 1023.8
20200531042013 58 9 0.0 0.0 0.00 0.00 0.00 84 1023.8
20200531041627 58 9 0.0 0.0 0.00 0.00 0.00 84 1023.8
20200531041005 59 9 0.0 0.0 0.00 0.00 0.00 83 1023.9
20200531040507 59 9 0.0 0.0 0.00 0.00 0.00 83 1024.0
20200531040012 59 9 0.0 0.0 0.00 0.00 0.00 83 1024.0
20200531035505 59 8 0.0 0.0 0.00 0.00 0.00 82 1024.0
20200531035004 59 9 0.0 0.0 0.00 0.00 0.00 83 1024.0
20200531034504 59 9 0.0 0.0 0.00 0.00 0.00 83 1024.0
20200531034004 59 9 0.0 0.0 0.00 0.00 0.00 83 1023.8
20200531033504 59 9 0.0 0.0 0.00 0.00 0.00 82 1023.9
20200531033014 59 9 0.0 0.0 0.00 0.00 0.00 81 1024.0
20200531032506 60 8 0.0 0.0 0.00 0.00 0.00 81 1023.9
20200531032001 60 9 0.0 0.0 0.00 0.00 0.00 81 1023.8
20200531031506 60 9 0.0 0.0 0.00 0.00 0.00 80 1023.9
20200531031104 60 9 0.0 0.0 0.00 0.00 0.00 81 1023.9
20200531030549 60 9 0.0 0.0 0.00 0.00 0.00 79 1023.7
20200531030116 61 9 0.0 0.0 0.00 0.00 0.00 80 1023.6
20200531025548 61 8 0.0 0.0 0.00 0.00 0.00 80 1023.5
20200531025049 61 9 0.0 0.0 0.00 0.00 0.00 79 1023.5
20200531024625 62 8 0.0 0.0 0.00 0.00 0.00 79 1023.4
20200531024051 62 9 0.0 0.0 0.00 0.00 0.00 80 1023.4
20200531023547 62 9 0.0 0.0 0.00 0.00 0.00 78 1023.4
20200531023159 63 9 0.0 0.0 0.00 0.00 0.00 76 1023.4
20200531022546 63 9 0.0 0.0 0.00 0.00 0.00 76 1023.3
20200531022046 64 9 0.0 0.0 0.00 0.00 0.00 76 1023.1
20200531021551 64 8 0.0 0.0 0.00 0.00 0.00 77 1023.1
20200531021043 65 9 0.0 0.0 0.00 0.00 0.00 75 1023.1
20200531020543 66 9 0.0 0.0 0.00 0.00 0.00 73 1023.0
20200531020104 66 9 0.0 0.0 0.00 0.00 0.00 70 1023.0
20200531015526 66 8 0.0 0.0 0.00 0.00 0.00 69 1023.0
20200531015026 66 351 0.0 0.0 0.00 0.00 0.00 69 1023.0
20200531014626 66 351 0.0 0.0 0.00 0.00 0.00 69 1022.9
20200531014026 67 351 0.0 1.7 0.00 0.00 0.00 68 1022.9
20200531013525 67 46 0.0 1.7 0.00 0.00 0.00 69 1022.8
20200531013037 67 6 0.0 0.9 0.00 0.00 0.00 72 1022.8
20200531012525 68 354 0.0 0.0 0.00 0.00 0.00 73 1022.8
20200531012024 69 354 0.0 0.0 0.00 0.00 0.00 68 1022.7
20200531011606 69 354 0.0 0.0 0.00 0.00 0.00 68 1022.7
20200531011018 70 354 0.0 0.0 0.00 0.00 0.00 66 1022.7
20200531010517 70 354 0.0 1.7 0.00 0.00 0.00 63 1022.7
20200531010047 70 354 0.0 1.7 0.00 0.00 0.00 62 1022.7
20200531005534 71 356 0.0 1.7 0.00 0.00 0.00 62 1022.7
20200531005016 70 356 0.0 1.7 0.00 0.00 0.00 61 1022.6
20200531004526 70 358 0.0 0.9 0.00 0.00 0.00 62 1022.5
20200531004020 71 354 0.0 0.9 0.00 0.00 0.00 62 1022.6
20200531003516 71 354 0.0 0.9 0.00 0.00 0.00 61 1022.7
20200531003019 71 29 0.0 3.5 0.00 0.00 0.00 62 1022.7
20200531002520 71 9 0.0 2.6 0.00 0.00 0.00 61 1022.7
20200531002019 72 3 0.0 0.9 0.00 0.00 0.00 61 1022.5
20200531001525 72 3 0.0 0.9 0.00 0.00 0.00 59 1022.4
20200531001006 72 7 0.0 2.6 0.00 0.00 0.00 58 1022.3
20200531000509 72 347 0.0 2.6 0.00 0.00 0.00 58 1022.4
20200531000003 73 354 0.9 1.7 0.00 0.00 0.00 58 1022.4
20200530235503 73 354 0.0 1.7 0.00 0.00 0.00 60 1022.3
20200530235002 74 323 0.0 3.5 0.00 0.00 0.00 55 1022.3
20200530234503 74 3 1.7 3.5 0.00 0.00 0.00 54 1022.2
20200530234002 74 351 0.9 3.5 0.00 0.00 0.00 55 1022.2
20200530233504 74 339 0.0 4.3 0.00 0.00 0.00 54 1022.3
20200530232601 75 319 0.9 4.3 0.00 0.00 0.00 52 1022.3
20200530232100 76 297 1.7 4.3 0.00 0.00 0.00 51 1022.1
20200530231102 76 337 3.5 7.8 0.00 0.00 0.00 50 1022.2
20200530230610 76 301 4.3 7.8 0.00 0.00 0.00 50 1022.1
20200530230154 76 4 1.7 6.1 0.00 0.00 0.00 49 1022.1
20200530225553 76 306 0.9 7.8 0.00 0.00 0.00 51 1022.1
20200530225053 76 302 3.5 8.7 0.00 0.00 0.00 51 1022.3
20200530224705 76 332 4.3 8.7 0.00 0.00 0.00 49 1022.4
20200530224057 76 337 2.6 7.0 0.00 0.00 0.00 51 1022.4
20200530223557 76 316 2.6 8.7 0.00 0.00 0.00 51 1022.5
20200530223233 76 300 4.3 8.7 0.00 0.00 0.00 50 1022.6
20200530222604 76 337 3.5 6.1 0.00 0.00 0.00 52 1022.6
20200530222103 76 27 0.9 4.3 0.00 0.00 0.00 52 1022.7
20200530221636 76 88 0.9 6.1 0.00 0.00 0.00 51 1022.7
20200530221049 76 54 1.7 7.0 0.00 0.00 0.00 53 1022.7
20200530220531 75 6 2.6 7.8 0.00 0.00 0.00 53 1022.8
20200530220123 76 319 5.2 10.4 0.00 0.00 0.00 53 1022.8
20200530215605 76 351 4.3 10.4 0.00 0.00 0.00 52 1022.9
20200530215040 76 325 2.6 7.0 0.00 0.00 0.00 53 1022.7
20200530214616 76 53 3.5 7.8 0.00 0.00 0.00 52 1022.8
20200530214059 76 350 4.3 7.8 0.00 0.00 0.00 51 1022.8
20200530213545 76 13 2.6 7.0 0.00 0.00 0.00 53 1022.9
20200530213108 76 332 3.5 7.8 0.00 0.00 0.00 53 1022.8
20200530212529 76 346 3.5 7.8 0.00 0.00 0.00 52 1022.9
20200530212029 76 21 0.9 6.1 0.00 0.00 0.00 50 1022.8
20200530211602 76 14 0.9 6.1 0.00 0.00 0.00 51 1022.7
20200530211033 76 332 3.5 6.1 0.00 0.00 0.00 50 1022.8
20200530210522 76 37 2.6 7.0 0.00 0.00 0.00 52 1022.8
20200530210029 76 72 1.7 9.6 0.00 0.00 0.00 49 1022.8
20200530205537 76 339 2.6 9.6 0.00 0.00 0.00 51 1023.0
20200530205026 76 354 1.7 6.1 0.00 0.00 0.00 51 1022.8
20200530204616 76 325 1.7 6.1 0.00 0.00 0.00 52 1022.8
20200530204019 76 342 1.7 4.3 0.00 0.00 0.00 53 1022.9
20200530203519 75 60 0.9 5.2 0.00 0.00 0.00 53 1022.8
20200530203027 74 310 2.6 7.0 0.00 0.00 0.00 51 1023.0
20200530202521 75 297 3.5 7.0 0.00 0.00 0.00 55 1023.1
20200530202024 75 324 2.6 7.0 0.00 0.00 0.00 51 1023.0
20200530201522 75 349 2.6 7.8 0.00 0.00 0.00 49 1023.0
20200530201013 75 353 4.3 7.8 0.00 0.00 0.00 51 1022.9
20200530200511 76 13 1.7 6.1 0.00 0.00 0.00 51 1023.0
20200530200015 75 20 2.6 5.2 0.00 0.00 0.00 52 1023.1
20200530195504 75 308 0.9 7.0 0.00 0.00 0.00 52 1023.2
20200530195010 74 347 2.6 8.7 0.00 0.00 0.00 56 1023.3
20200530194505 74 331 5.2 10.4 0.00 0.00 0.00 53 1023.2
20200530194001 74 355 2.6 10.4 0.00 0.00 0.00 54 1023.2
20200530193501 74 285 2.6 7.8 0.00 0.00 0.00 53 1023.3
20200530193002 74 301 4.3 8.7 0.00 0.00 0.00 53 1023.3
20200530192501 74 275 2.6 8.7 0.00 0.00 0.00 54 1023.2
20200530192106 74 301 3.5 8.7 0.00 0.00 0.00 54 1023.3
20200530191804 74 296 1.7 5.2 0.00 0.00 0.00 55 1023.4
20200530191057 74 304 1.7 7.0 0.00 0.00 0.00 60 1023.6
20200530190555 74 333 2.6 8.7 0.00 0.00 0.00 55 1023.7
20200530190127 75 300 4.3 8.7 0.00 0.00 0.00 55 1023.6
20200530185553 74 214 1.7 9.6 0.00 0.00 0.00 52 1023.5
20200530185054 74 335 3.5 9.6 0.00 0.00 0.00 54 1023.6
20200530184654 74 305 1.7 11.3 0.00 0.00 0.00 53 1023.7
20200530184056 74 331 5.2 11.3 0.00 0.00 0.00 54 1023.7
20200530183553 75 335 4.3 8.7 0.00 0.00 0.00 52 1023.7
20200530183114 74 54 2.6 8.7 0.00 0.00 0.00 52 1023.7
20200530182646 74 9 3.5 8.7 0.00 0.00 0.00 56 1023.6
20200530182050 73 348 3.5 8.7 0.00 0.00 0.00 54 1023.7
20200530181709 74 357 3.5 8.7 0.00 0.00 0.00 54 1023.8
20200530181056 74 17 1.7 10.4 0.00 0.00 0.00 53 1024.0
20200530180531 73 295 4.3 10.4 0.00 0.00 0.00 54 1023.9
20200530180130 73 35 1.7 5.2 0.00 0.00 0.00 56 1023.7
20200530175531 73 272 0.9 7.0 0.00 0.00 0.00 55 1023.7
20200530175033 73 43 3.5 7.8 0.00 0.00 0.00 54 1023.8
20200530174610 73 292 4.3 10.4 0.00 0.00 0.00 55 1023.8
20200530174029 72 292 4.3 10.4 0.00 0.00 0.00 55 1024.1
20200530173538 72 291 3.5 11.3 0.00 0.00 0.00 56 1024.2
20200530173053 73 336 6.1 11.3 0.00 0.00 0.00 54 1024.3
20200530172528 73 349 1.7 7.8 0.00 0.00 0.00 53 1024.2
20200530172027 73 360 1.7 7.0 0.00 0.00 0.00 54 1024.3
20200530171612 73 292 0.9 6.1 0.00 0.00 0.00 55 1024.1
20200530171021 72 345 2.6 7.8 0.00 0.00 0.00 55 1024.1
20200530170521 72 323 3.5 10.4 0.00 0.00 0.00 54 1024.2
20200530170039 72 345 2.6 10.4 0.00 0.00 0.00 54 1024.3
20200530165526 73 20 4.3 8.7 0.00 0.00 0.00 53 1024.2
20200530165020 73 136 0.9 2.6 0.00 0.00 0.00 55 1024.2
20200530164535 72 76 0.0 7.8 0.00 0.00 0.00 57 1024.2
20200530164025 72 289 2.6 7.8 0.00 0.00 0.00 56 1024.1
20200530163523 72 321 1.7 6.1 0.00 0.00 0.00 58 1024.1
20200530163106 71 68 1.7 6.1 0.00 0.00 0.00 57 1024.1
20200530162515 71 59 0.9 7.0 0.00 0.00 0.00 58 1024.2
20200530162015 71 298 1.7 7.0 0.00 0.00 0.00 58 1024.2
20200530161629 71 339 1.7 4.3 0.00 0.00 0.00 58 1024.1
20200530161034 70 42 0.0 6.1 0.00 0.00 0.00 62 1024.2
20200530160511 69 258 2.6 8.7 0.00 0.00 0.00 61 1024.3
20200530160024 70 306 4.3 8.7 0.00 0.00 0.00 60 1024.3
20200530155512 70 358 2.6 5.2 0.00 0.00 0.00 62 1024.3
20200530155011 69 126 0.9 4.3 0.00 0.00 0.00 59 1024.2
20200530154528 69 71 0.9 7.0 0.00 0.00 0.00 61 1024.1
20200530154005 69 9 3.5 7.0 0.00 0.00 0.00 60 1024.2
20200530153505 69 292 0.9 7.0 0.00 0.00 0.00 59 1024.0
20200530153008 70 330 2.6 7.0 0.00 0.00 0.00 57 1024.1
20200530152504 69 118 0.9 4.3 0.00 0.00 0.00 56 1024.1
20200530152014 69 66 1.7 6.1 0.00 0.00 0.00 55 1024.1
20200530151503 69 6 2.6 6.1 0.00 0.00 0.00 54 1024.1
20200530151134 69 355 3.5 6.1 0.00 0.00 0.00 54 1024.0
20200530150555 69 280 1.7 6.1 0.00 0.00 0.00 56 1024.0
20200530150203 68 359 0.0 6.1 0.00 0.00 0.00 56 1024.0
20200530145551 69 323 0.9 3.5 0.00 0.00 0.00 58 1024.0
20200530145049 69 62 0.0 3.5 0.00 0.00 0.00 58 1024.0
20200530144558 68 199 0.0 3.5 0.00 0.00 0.00 63 1024.0
20200530144048 68 108 1.7 3.5 0.00 0.00 0.00 62 1024.0
20200530143547 68 66 1.7 4.3 0.00 0.00 0.00 62 1024.0
20200530143055 68 136 1.7 5.2 0.00 0.00 0.00 62 1024.1
20200530142546 68 89 1.7 5.2 0.00 0.00 0.00 63 1024.2
20200530142048 68 274 0.0 4.3 0.00 0.00 0.00 64 1024.2
20200530141616 67 131 0.9 4.3 0.00 0.00 0.00 63 1024.2
20200530141049 67 31 0.0 1.7 0.00 0.00 0.00 61 1024.2
20200530140552 67 92 0.0 6.1 0.00 0.00 0.00 59 1024.1
20200530140042 67 53 1.7 6.1 0.00 0.00 0.00 59 1024.3
20200530135531 67 5 0.0 2.6 0.00 0.00 0.00 60 1024.5
20200530135030 66 33 0.9 1.7 0.00 0.00 0.00 61 1024.5
20200530134531 66 356 0.0 0.9 0.00 0.00 0.00 61 1024.5
20200530134028 65 60 0.0 2.6 0.00 0.00 0.00 62 1024.6
20200530133528 65 303 0.0 2.6 0.00 0.00 0.00 65 1024.6
20200530133107 64 227 0.0 0.9 0.00 0.00 0.00 65 1024.5
20200530132526 64 256 0.0 1.7 0.00 0.00 0.00 65 1024.5
20200530132035 65 328 0.0 1.7 0.00 0.00 0.00 64 1024.5
20200530131527 64 264 0.0 0.0 0.00 0.00 0.00 67 1024.4
20200530131020 62 287 0.0 0.0 0.00 0.00 0.00 67 1024.5
20200530130515 62 313 0.0 0.0 0.00 0.00 0.00 67 1024.4
20200530130029 62 272 0.0 0.0 0.00 0.00 0.00 68 1024.5
20200530125514 61 264 0.0 0.9 0.00 0.00 0.00 70 1024.2
20200530125012 61 231 0.0 0.9 0.00 0.00 0.00 70 1024.3
20200530124519 60 220 0.0 1.7 0.00 0.00 0.00 71 1024.3
20200530124009 60 200 0.0 1.7 0.00 0.00 0.00 71 1024.3
20200530123508 60 229 0.0 0.9 0.00 0.00 0.00 72 1024.3
20200530123020 59 239 0.0 0.0 0.00 0.00 0.00 74 1024.2
20200530122505 59 226 0.0 0.0 0.00 0.00 0.00 74 1024.2
20200530122004 59 218 0.0 0.0 0.00 0.00 0.00 76 1024.3
20200530121503 58 236 0.0 0.0 0.00 0.00 0.00 77 1024.3
20200530121104 58 271 0.0 0.0 0.00 0.00 0.00 79 1024.2
20200530120549 57 283 0.0 0.0 0.00 0.00 0.00 79 1024.2
20200530120238 57 284 0.0 0.0 0.00 0.00 0.00 79 1024.1
20200530115548 57 316 0.0 0.0 0.00 0.00 0.00 80 1024.0
20200530115059 57 316 0.0 0.0 0.00 0.00 0.00 81 1023.9
20200530114650 56 318 0.0 0.0 0.00 0.00 0.00 81 1023.9
20200530114109 56 318 0.0 0.0 0.00 0.00 0.00 81 1023.8
20200530113555 55 318 0.0 0.0 0.00 0.00 0.00 81 1023.7
20200530113118 54 318 0.0 0.0 0.00 0.00 0.00 82 1023.8
20200530112546 52 318 0.0 0.0 0.00 0.00 0.00 82 1023.7
20200530112045 52 318 0.0 0.0 0.00 0.00 0.00 82 1023.7
20200530111609 52 318 0.0 0.0 0.00 0.00 0.00 82 1023.5
20200530111041 52 318 0.0 0.0 0.00 0.00 0.00 83 1023.5
20200530110534 52 318 0.0 0.0 0.00 0.00 0.00 83 1023.5
20200530110141 51 318 0.0 0.0 0.00 0.00 0.00 82 1023.6
20200530105533 51 318 0.0 0.0 0.00 0.00 0.00 82 1023.5
20200530105032 51 318 0.0 0.0 0.00 0.00 0.00 82 1023.4
20200530104547 51 318 0.0 0.0 0.00 0.00 0.00 82 1023.5
20200530104035 51 318 0.0 0.0 0.00 0.00 0.00 82 1023.4
20200530103529 51 318 0.0 0.0 0.00 0.00 0.00 82 1023.4
20200530103148 51 318 0.0 0.0 0.00 0.00 0.00 82 1023.3
20200530102526 51 318 0.0 0.0 0.00 0.00 0.00 82 1023.4
20200530102025 51 318 0.0 0.0 0.00 0.00 0.00 82 1023.3
20200530101553 51 318 0.0 0.0 0.00 0.00 0.00 82 1023.3
20200530101020 51 318 0.0 0.0 0.00 0.00 0.00 82 1023.1
20200530100535 52 318 0.0 0.0 0.00 0.00 0.00 82 1023.0
20200530100058 52 318 0.0 0.0 0.00 0.00 0.00 82 1023.1
20200530095532 52 318 0.0 0.0 0.00 0.00 0.00 82 1023.1
20200530095015 52 318 0.0 0.0 0.00 0.00 0.00 82 1023.0
20200530094531 52 318 0.0 0.0 0.00 0.00 0.00 82 1023.0
20200530094013 52 318 0.0 0.0 0.00 0.00 0.00 82 1023.0
20200530093519 52 318 0.0 0.0 0.00 0.00 0.00 82 1022.9
20200530093040 52 318 0.0 0.0 0.00 0.00 0.00 82 1023.0
20200530092512 52 318 0.0 0.0 0.00 0.00 0.00 82 1023.0
20200530092011 52 318 0.0 0.0 0.00 0.00 0.00 81 1023.0
20200530091518 52 318 0.0 0.0 0.00 0.00 0.00 82 1023.0
20200530090554 52 318 0.0 0.0 0.00 0.00 0.00 81 1023.1
20200530090233 52 318 0.0 0.0 0.00 0.00 0.00 81 1023.0
20200530085551 53 318 0.0 0.0 0.00 0.00 0.00 81 1023.0
20200530085051 53 318 0.0 0.0 0.00 0.00 0.00 81 1022.9
20200530084631 53 318 0.0 0.0 0.00 0.00 0.00 81 1023.0
20200530084051 53 318 0.0 0.0 0.00 0.00 0.00 81 1022.9
20200530083551 53 318 0.0 0.0 0.00 0.00 0.00 81 1022.9
20200530083203 53 318 0.0 0.0 0.00 0.00 0.00 81 1022.8
20200530082552 53 318 0.0 0.0 0.00 0.00 0.00 81 1022.7
20200530082048 53 318 0.0 0.0 0.00 0.00 0.00 81 1022.7
20200530081649 53 318 0.0 0.0 0.00 0.00 0.00 81 1022.7
20200530081044 53 318 0.0 0.0 0.00 0.00 0.00 81 1022.7
20200530080051 53 318 0.0 0.0 0.00 0.00 0.00 81 1022.6
20200530075536 53 318 0.0 0.0 0.00 0.00 0.00 81 1022.6
20200530075030 53 318 0.0 0.0 0.00 0.00 0.00 81 1022.4
20200530074549 53 318 0.0 0.0 0.00 0.00 0.00 80 1022.4
20200530074045 53 318 0.0 0.0 0.00 0.00 0.00 79 1022.3
20200530073533 53 318 0.0 0.0 0.00 0.00 0.00 79 1022.4
20200530073128 53 318 0.0 0.0 0.00 0.00 0.00 79 1022.3